Tracking 19575 objects as of 18-Feb-2019
HD Live streaming from Space Station
objects crossing your sky now

HISPASAT 1A

Track HISPASAT 1A now!
HISPASAT 1A is classified as:


NORAD ID: 22116
Int'l Code: 1992-060A
Perigee: 36,019.2 km
Apogee: 36,107.5 km
Inclination: 12.3 °
Period: 1,449.9 minutes
Semi major axis: 42434 km
RCS: 7.143 m2 (large)
Launch date: September 10, 1992
Source: Spain (SPN)
Launch site: FRENCH GUIANA (FRGUI)
aabbcc
Your satellite tracking list
Your tracking list is empty




NASA's NSSDC Master Catalog

Two Line Element Set (TLE):
1 22116U 92060A   19048.68046595 -.00000011  00000-0  00000+0 0  9996
2 22116  12.2815  29.8380 0010409 275.2032 288.6910  0.99317737 92908
Source of the keplerian elements: AFSPC